ONEWEB-0609, 56070

Orbit data source: Space-Track

ONEWEB-0609, 56070 is a payload satellite owned by One Web (NAA) (UK) in LEO that was launched on Sun, 26 Mar 2023 UTC via a LVM3 launch vehicle from the Sirharikota (SRI). Payload-class satellites include a variety of spacecraft equipped with specific instruments for various scientific and technological missions. These include communications satellites like Starlink; space stations such as the ISS; scientific satellites like the Hubble; Earth observation satellites from companies like Planet Labs, Umbra, and HawkEye 360; GPS; miniature CubeSats for education and research; and military/defense satellites.

Loading next visibility...
Identifier
56070, 2023-043AA
Orbit
LEO
Country
Flag of UKUK
Related business
Manufacturer
One Web
Mission
Operational Commercial Communications
Bus & Motor
ARROW, Unknown motor
Mass
148 kg wet, ~140 kg dry
Launch date (UTC)
2023-03-26 (2 years ago)
Launch vehicle
LVM3
Launch site
Sirharikota (SRI)
Object type
Payload
Rocket body
Debris
Shape & HBR
Trap Box + 2 Pan, 2.5 m
Radar Cross Section
2.032 m², Large (>1 m²)

Expand to show TLE details & history
Last TLE update: 14 hours ago

TLE from 14 hours ago
0 ONEWEB-0609
1 56070U 23043AA  25250.25051850  .00002725  00000-0  72044-2 0  9995
2 56070  87.9048 315.6710 0001920 100.7563 259.3784 13.15531760119239
Epoch: 2025-09-07T06:00Z
TLE epoch observation values (Epoch: 2025-09-07T06:00:44.798Z)
Latitude
0.00003°
Longitude
-121.08834°
Altitude
1,204.999 km
Speed
7.251 km/s
True Right ascension
21h 02m 41s
True Declination
0° 00' 00"
Sunlit
Object was in full shadow at epoch
Visualization orbit readout
Latitude
Unknown
Longitude
Unknown
Altitude
Unknown
Speed
Unknown
Apparent Right ascension
Unknown
Apparent Declination
Unknown
Sunlit
N/A
Visualization observer readout
Local Sidereal Time
11:45:41
Azimuth
Unknown
Elevation
Unknown
Doppler factor
Unknown
Orbital elements
Apogee altitude
1,200.402 km
Perigee altitude
1,197.492 km
Semi-major axis
7,577.084 km
Eccentricity
0.00019
Inclination
87.9048°
RAAN
315.671°
Arg. of periapsis
100.7563°
True anomaly
259.35678°
Mean anomaly
259.3784°
Eccentric anomaly
259.36759°
Mean motion
3.29071 °/min
Orbital period
109.4 mins
BSTAR
0.0072044
Loading maneuver chart data...
Computing Atmospheric mass density...
Loading historical data...
Loading historical data...
Loading historical data...
Loading historical data...
Loading historical data...
Loading historical data...
Loading historical data...

Documentation

Showing up to 5 results
|